Simultaneous Nadir Overpasses (SNOs) Predictions

Prediction of SNOs between GOES-14 and NPP Satellite Orbit:

Table of predicted SNOs for the next 14.0 days since TLE Epoch: 10/7/2023
Index Date Time (GOES-14) GOES-14 Lat,Lon NPP Lat,Lon Distance(km) Time Diff (sec)
1 10/07/2023 20:40:22 -0.25,-108.53 -0.36,-108.92 44.30 80
2 10/08/2023 20:24:16 -0.26,-108.53 0.65,-104.38 473.00 80
3 10/10/2023 08:43:22 0.23,-108.60 0.47,-109.66 119.98 80
4 10/11/2023 08:27:15 0.24,-108.60 -0.54,-105.12 397.34 80
5 10/12/2023 20:46:29 -0.21,-108.53 -0.65,-110.41 214.46 80
6 10/13/2023 20:30:22 -0.23,-108.54 0.37,-105.87 303.15 80
7 10/15/2023 08:49:27 0.20,-108.61 0.79,-111.14 289.39 80
8 10/16/2023 08:33:21 0.21,-108.61 -0.23,-106.60 227.97 80
9 10/17/2023 20:52:34 -0.18,-108.53 -0.94,-111.90 384.44 80
10 10/18/2023 20:36:28 -0.20,-108.52 0.08,-107.37 132.64 80
11 10/20/2023 08:55:33 0.16,-108.59 1.07,-112.63 460.75 80
